Total_Precipitation_Accumulation
1.60 1.67 1.73 1.84 1.90 1.93 1.95 1.94 1.94 1.94 1.95 1.95 2.05 2.11 2.13 2.15 2.34 2.53 2.45 2.71 2.84 2.88 2.68 2.63 2.60 2.64 2.66 2.51 2.60 2.71 2.80 3.12 3.12 2.47 2.29 2.37 2.47 2.45 2.51 2.39 2.29 2.28 2.10
1.60 1.76 1.81 1.96 1.99 1.93 1.95 2.14 2.15 2.09 2.06 2.05 2.13 2.22 2.19 2.22 2.39 2.39 2.24 2.35 2.56 2.79 3.00 3.11 2.84 2.84 2.87 2.71 2.72 2.73 2.79 3.03 3.07 2.85 2.64 2.59 2.64 2.58 2.58 2.40 2.03 1.94 2.04
1.48 1.65 1.87 1.96 2.01 2.16 2.31 2.46 2.48 2.38 2.33 2.32 2.38 2.31 2.34 2.41 2.40 2.31 2.34 2.37 2.46 2.54 2.79 3.05 3.04 3.21 2.95 2.97 2.90 2.78 2.78 2.79 2.99 2.83 2.62 2.77 2.79 2.75 2.68 2.28 2.09 2.18 2.01
1.62 1.83 2.00 2.19 2.34 2.48 2.47 2.51 2.49 2.48 2.50 2.52 2.54 2.47 2.43 2.48 2.50 2.49 2.49 2.45 2.49 2.46 2.52 2.65 2.77 3.05 3.04 3.10 2.92 2.94 3.07 3.13 3.25 3.10 2.89 2.96 3.08 3.09 2.98 2.60 2.43 2.32 2.19
1.91 2.04 2.10 2.22 2.38 2.64 2.84 2.80 2.72 2.65 2.57 2.74 2.72 2.63 2.64 2.64 2.44 2.57 2.79 2.75 2.81 2.60 2.51 2.47 2.45 2.69 2.78 2.84 2.59 2.77 3.07 3.13 3.21 3.14 3.02 3.03 3.02 3.18 2.92 2.75 2.59 2.56 2.44
2.37 2.52 2.66 2.76 2.87 3.00 3.07 3.09 3.12 3.05 2.98 2.92 2.80 2.86 2.84 2.57 2.69 2.77 2.70 2.75 2.95 2.93 2.78 2.70 2.56 2.50 2.50 2.53 2.55 2.63 2.78 2.80 2.86 2.96 2.87 2.84 2.88 3.03 3.21 3.10 2.92 2.76 2.48
2.53 2.65 2.78 2.89 3.05 3.20 3.26 3.29 3.14 3.09 3.01 2.90 2.92 2.99 2.92 2.93 2.88 2.64 2.51 2.53 2.62 2.70 2.76 2.73 2.42 2.27 2.50 2.40 2.56 2.58 2.38 2.31 2.33 2.48 2.48 2.47 2.90 3.22 3.55 3.23 3.07 2.91 2.64
2.71 2.81 2.87 2.93 3.02 3.22 3.43 3.34 3.17 3.13 3.07 3.02 2.98 2.89 2.82 2.72 2.76 2.52 2.50 2.39 2.32 2.27 2.40 2.52 2.46 2.34 2.37 2.49 2.41 2.15 1.92 1.90 1.97 1.90 1.91 2.16 2.61 3.19 3.50 3.46 3.45 3.21 2.86
2.44 2.64 2.65 2.81 2.99 3.11 3.14 3.16 3.24 3.21 3.00 2.84 2.75 2.74 2.69 2.74 2.98 2.68 2.53 2.30 2.28 2.12 2.14 2.15 2.17 2.03 2.17 2.29 2.17 1.94 1.76 1.70 1.75 1.77 1.77 1.99 2.26 2.62 3.05 3.27 3.17 3.00 2.56
2.38 2.59 2.77 2.93 3.09 3.13 3.15 3.29 3.35 3.32 3.27 3.23 3.09 3.02 2.92 2.86 3.07 2.80 2.60 2.32 2.29 2.23 2.24 2.20 2.25 2.00 1.91 1.86 1.78 1.80 1.61 1.51 1.66 1.64 1.61 1.67 1.80 2.13 2.62 2.69 2.70 2.79 2.49
2.43 2.53 2.68 2.88 3.11 3.36 3.54 3.47 3.47 3.45 3.37 3.19 3.04 2.91 2.86 2.83 2.78 2.59 2.42 2.11 2.06 2.13 2.00 1.87 1.90 1.91 1.70 1.54 1.51 1.47 1.41 1.49 1.60 1.59 1.51 1.51 1.65 1.85 2.04 2.29 2.53 2.57 2.40
2.56 2.65 2.73 2.92 3.00 3.15 3.43 3.45 3.39 3.37 3.29 3.20 3.15 3.09 2.99 2.80 2.53 2.29 2.16 2.01 2.00 1.97 1.97 1.95 1.99 2.01 1.75 1.60 1.43 1.29 1.36 1.37 1.39 1.50 1.45 1.38 1.42 1.55 1.82 2.11 2.41 2.53 2.46
2.52 2.69 2.88 3.00 3.07 3.20 3.37 3.43 3.41 3.32 3.18 3.05 2.93 2.75 2.73 2.74 2.65 2.42 2.13 1.92 1.88 1.76 1.93 2.25 2.28 2.20 1.96 1.67 1.58 1.61 1.56 1.40 1.37 1.40 1.35 1.30 1.37 1.53 1.83 2.17 2.42 2.62 2.60
2.50 2.56 2.72 2.87 3.02 3.19 3.21 3.07 2.95 2.81 2.74 2.70 2.55 2.44 2.46 2.52 2.40 2.30 2.13 2.01 1.99 1.88 1.91 2.19 2.37 2.35 2.21 1.98 1.86 1.79 1.59 1.50 1.55 1.53 1.55 1.59 1.71 1.85 1.99 2.13 2.36 2.54 2.61
2.52 2.58 2.57 2.59 2.68 2.85 2.93 2.88 2.75 2.59 2.44 2.38 2.26 2.26 2.26 2.21 2.24 2.29 2.14 2.01 1.99 2.05 2.14 2.30 2.43 2.54 2.56 2.48 2.36 2.27 2.15 1.99 1.81 1.75 1.80 1.80 1.86 1.97 2.03 2.18 2.42 2.53 2.47
2.60 2.47 2.37 2.29 2.30 2.38 2.41 2.45 2.58 2.47 2.46 2.30 2.15 2.08 2.02 2.05 2.10 2.06 1.97 1.91 1.94 2.08 2.10 2.16 2.40 2.60 2.68 2.76 2.80 2.68 2.46 2.27 2.10 2.06 2.00 1.96 2.00 2.02 2.07 2.22 2.43 2.53 2.39
2.51 2.34 2.23 2.16 2.18 2.15 2.13 2.19 2.34 2.40 2.36 2.26 2.21 2.05 1.89 1.92 1.89 1.87 1.86 1.82 1.86 1.94 1.90 2.01 2.14 2.26 2.46 2.67 2.74 2.70 2.49 2.39 2.42 2.39 2.29 2.23 2.24 2.25 2.24 2.32 2.49 2.60 2.56
2.30 2.36 2.24 2.11 2.14 2.21 2.23 2.21 2.23 2.29 2.28 2.18 2.17 2.11 1.84 1.74 1.73 1.71 1.71 1.62 1.51 1.54 1.60 1.79 2.00 2.15 2.32 2.56 2.71 2.74 2.67 2.61 2.62 2.67 2.63 2.55 2.51 2.42 2.32 2.25 2.39 2.51 2.56
2.14 2.19 2.23 2.23 2.20 2.26 2.31 2.23 2.15 2.12 2.12 2.02 1.94 1.98 1.93 1.76 1.68 1.67 1.65 1.46 1.39 1.42 1.52 1.56 1.65 1.86 2.08 2.33 2.58 2.76 2.75 2.64 2.60 2.65 2.64 2.59 2.56 2.52 2.36 2.24 2.30 2.50 2.56
2.07 2.22 2.15 2.17 2.19 2.18 2.24 2.26 2.23 2.23 2.17 2.06 1.97 1.93 1.90 1.75 1.60 1.71 1.78 1.73 1.63 1.58 1.58 1.58 1.68 1.85 2.05 2.28 2.49 2.59 2.64 2.64 2.60 2.57 2.50 2.44 2.43 2.41 2.25 2.20 2.22 2.30 2.34
1.94 2.02 2.08 1.92 1.95 2.08 2.09 2.12 2.18 2.23 2.20 2.10 1.97 1.96 1.87 1.63 1.68 1.78 1.90 1.95 1.85 1.74 1.69 1.69 1.72 1.81 1.97 2.18 2.34 2.46 2.51 2.56 2.59 2.61 2.56 2.46 2.42 2.41 2.35 2.30 2.28 2.31 2.32
1.97 1.85 1.82 1.85 2.01 2.11 2.17 2.16 2.14 2.10 2.07 2.04 1.99 1.98 1.97 1.71 1.76 1.83 1.87 1.94 1.97 1.95 1.89 1.90 1.91 1.90 1.96 2.10 2.26 2.38 2.42 2.43 2.47 2.54 2.59 2.59 2.58 2.55 2.59 2.59 2.53 2.48 2.47
1.88 1.85 1.80 1.81 1.96 2.13 2.19 2.17 2.16 2.11 2.08 2.06 2.02 2.00 1.99 1.90 1.91 2.00 2.03 2.05 2.05 2.01 1.96 1.95 1.93 1.92 1.94 1.96 2.05 2.19 2.28 2.28 2.27 2.37 2.48 2.45 2.40 2.39 2.44 2.48 2.49 2.51 2.47
1.67 1.79 1.83 1.81 1.86 1.90 1.93 1.94 1.92 1.89 1.90 1.92 1.95 2.02 2.03 2.05 2.09 2.13 2.08 2.01 1.95 1.90 1.89 1.86 1.82 1.79 1.81 1.86 1.88 1.87 1.94 2.04 2.03 2.07 2.20 2.27 2.25 2.23 2.27 2.30 2.38 2.46 2.56
1.52 1.70 1.80 1.78 1.74 1.77 1.74 1.66 1.65 1.72 1.82 1.93 1.97 1.99 2.00 2.02 2.01 1.96 1.86 1.77 1.70 1.74 1.76 1.75 1.72 1.63 1.58 1.59 1.62 1.65 1.82 1.90 1.91 1.90 1.90 2.00 2.06 2.08 2.11 2.17 2.26 2.41 2.56
1.54 1.64 1.69 1.69 1.68 1.73 1.77 1.73 1.66 1.70 1.81 1.85 1.88 1.88 1.88 1.87 1.85 1.79 1.70 1.64 1.61 1.61 1.66 1.69 1.63 1.50 1.46 1.46 1.47 1.53 1.55 1.51 1.61 1.75 1.74 1.78 1.94 2.03 2.04 2.05 2.09 2.22 2.33